| time (UTC) | temp F | wind direction | speed MPH | gust MPH | rain 1hr in | rain 24hr in | rain mn in | humidity % | barometer mb |
| 20260508054417 | 53 | 0 | 0.0 | 0.0 | 0.00 | 0.00 | 0.00 | 96 | 1013.9 |
| 20260508053917 | 53 | 0 | 0.0 | 0.0 | 0.00 | 0.00 | 0.00 | 96 | 1013.9 |
| 20260508053417 | 53 | 0 | 0.0 | 0.0 | 0.00 | 0.00 | 0.00 | 96 | 1013.9 |
| 20260508052917 | 54 | 0 | 0.0 | 0.0 | 0.00 | 0.00 | 0.00 | 96 | 1013.9 |
| 20260508052417 | 54 | 0 | 0.0 | 0.0 | 0.00 | 0.00 | 0.00 | 96 | 1013.9 |
| 20260508051917 | 54 | 288 | 0.0 | 1.0 | 0.00 | 0.00 | 0.00 | 96 | 1014.0 |
| 20260508051417 | 54 | 39 | 1.0 | 1.0 | 0.00 | 0.00 | 0.00 | 96 | 1013.8 |
| 20260508050918 | 54 | 0 | 0.0 | 0.0 | 0.00 | 0.00 | 0.00 | 96 | 1013.8 |
| 20260508050418 | 54 | 0 | 0.0 | 0.0 | 0.00 | 0.00 | 0.00 | 96 | 1013.8 |
| 20260508045917 | 54 | 0 | 0.0 | 0.0 | 0.00 | 0.00 | 0.00 | 96 | 1013.8 |
| 20260508045417 | 54 | 0 | 0.0 | 0.0 | 0.00 | 0.00 | 0.00 | 96 | 1013.9 |
| 20260508044917 | 54 | 0 | 0.0 | 0.0 | 0.00 | 0.00 | 0.00 | 96 | 1013.9 |
| 20260508044417 | 54 | 0 | 0.0 | 0.0 | 0.00 | 0.00 | 0.00 | 96 | 1013.8 |
| 20260508043917 | 54 | 0 | 0.0 | 0.0 | 0.00 | 0.00 | 0.00 | 96 | 1013.7 |
| 20260508043417 | 55 | 0 | 0.0 | 0.0 | 0.00 | 0.00 | 0.00 | 96 | 1013.7 |
| 20260508042917 | 55 | 0 | 0.0 | 0.0 | 0.00 | 0.00 | 0.00 | 96 | 1013.7 |
| 20260508042417 | 55 | 0 | 0.0 | 0.0 | 0.00 | 0.00 | 0.00 | 96 | 1013.6 |
| 20260508041917 | 55 | 0 | 0.0 | 0.0 | 0.00 | 0.00 | 0.00 | 96 | 1013.7 |
| 20260508041417 | 55 | 0 | 0.0 | 0.0 | 0.00 | 0.00 | 0.00 | 96 | 1013.8 |
| 20260508040917 | 55 | 0 | 0.0 | 0.0 | 0.00 | 0.00 | 0.00 | 96 | 1013.8 |
| 20260508040417 | 55 | 0 | 0.0 | 0.0 | 0.00 | 0.00 | 0.00 | 96 | 1013.7 |
| 20260508035917 | 55 | 0 | 0.0 | 0.0 | 0.00 | 0.00 | 0.64 | 96 | 1013.7 |
| 20260508035418 | 55 | 0 | 0.0 | 0.0 | 0.00 | 0.00 | 0.64 | 96 | 1013.7 |
| 20260508034917 | 55 | 0 | 0.0 | 0.0 | 0.00 | 0.00 | 0.64 | 96 | 1013.6 |
| 20260508034417 | 55 | 0 | 0.0 | 0.0 | 0.00 | 0.00 | 0.64 | 96 | 1013.6 |
| 20260508033917 | 55 | 0 | 0.0 | 0.0 | 0.00 | 0.00 | 0.64 | 96 | 1013.4 |
| 20260508033417 | 55 | 49 | 0.0 | 1.0 | 0.00 | 0.00 | 0.64 | 96 | 1013.3 |
| 20260508032918 | 55 | 0 | 0.0 | 0.0 | 0.00 | 0.00 | 0.64 | 96 | 1013.3 |
| 20260508032418 | 55 | 0 | 0.0 | 0.0 | 0.00 | 0.00 | 0.64 | 96 | 1013.1 |
| 20260508031917 | 55 | 0 | 0.0 | 0.0 | 0.00 | 0.00 | 0.64 | 96 | 1013.0 |
| 20260508031417 | 55 | 0 | 0.0 | 0.0 | 0.00 | 0.00 | 0.64 | 95 | 1013.0 |
| 20260508030917 | 55 | 47 | 0.0 | 0.0 | 0.00 | 0.00 | 0.64 | 96 | 1013.0 |
| 20260508030418 | 55 | 0 | 0.0 | 0.0 | 0.00 | 0.00 | 0.64 | 96 | 1013.1 |
| 20260508025917 | 55 | 0 | 0.0 | 0.0 | 0.00 | 0.00 | 0.64 | 96 | 1013.1 |
| 20260508025417 | 55 | 0 | 0.0 | 0.0 | 0.00 | 0.00 | 0.64 | 96 | 1013.0 |
| 20260508024917 | 55 | 0 | 0.0 | 0.0 | 0.00 | 0.00 | 0.64 | 96 | 1013.0 |
| 20260508024417 | 55 | 41 | 0.0 | 0.0 | 0.00 | 0.00 | 0.64 | 96 | 1012.8 |
| 20260508023918 | 55 | 0 | 0.0 | 0.0 | 0.00 | 0.00 | 0.64 | 96 | 1013.0 |
| 20260508023417 | 55 | 0 | 0.0 | 0.0 | 0.00 | 0.00 | 0.64 | 96 | 1013.0 |
| 20260508022917 | 55 | 0 | 0.0 | 0.0 | 0.00 | 0.00 | 0.64 | 96 | 1012.8 |
| 20260508022418 | 55 | 0 | 0.0 | 0.0 | 0.00 | 0.00 | 0.64 | 96 | 1012.7 |
| 20260508021917 | 55 | 0 | 0.0 | 0.0 | 0.00 | 0.00 | 0.64 | 95 | 1012.6 |
| 20260508021417 | 55 | 0 | 0.0 | 0.0 | 0.00 | 0.00 | 0.64 | 95 | 1012.7 |
| 20260508020917 | 55 | 0 | 0.0 | 0.0 | 0.00 | 0.00 | 0.64 | 95 | 1012.6 |
| 20260508020418 | 55 | 0 | 0.0 | 0.0 | 0.00 | 0.00 | 0.64 | 95 | 1012.4 |
| 20260508015918 | 55 | 50 | 1.0 | 2.0 | 0.00 | 0.00 | 0.65 | 95 | 1012.4 |
| 20260508015417 | 55 | 0 | 0.0 | 0.0 | 0.00 | 0.00 | 0.65 | 95 | 1012.6 |
| 20260508014918 | 55 | 0 | 0.0 | 0.0 | 0.00 | 0.00 | 0.65 | 95 | 1012.5 |
| 20260508014417 | 55 | 0 | 0.0 | 0.0 | 0.00 | 0.00 | 0.65 | 95 | 1012.4 |
| 20260508013917 | 55 | 0 | 0.0 | 0.0 | 0.00 | 0.00 | 0.65 | 95 | 1012.4 |
| 20260508013417 | 55 | 0 | 0.0 | 0.0 | 0.00 | 0.00 | 0.65 | 95 | 1012.2 |
| 20260508012917 | 55 | 0 | 0.0 | 0.0 | 0.00 | 0.00 | 0.65 | 95 | 1012.1 |
| 20260508012417 | 55 | 0 | 0.0 | 0.0 | 0.00 | 0.00 | 0.65 | 95 | 1011.9 |
| 20260508011917 | 55 | 0 | 0.0 | 0.0 | 0.00 | 0.00 | 0.66 | 95 | 1011.7 |
| 20260508011417 | 55 | 0 | 0.0 | 0.0 | 0.00 | 0.00 | 0.66 | 95 | 1011.7 |
| 20260508010917 | 55 | 0 | 0.0 | 0.0 | 0.00 | 0.00 | 0.66 | 95 | 1011.4 |
| 20260508010417 | 55 | 0 | 0.0 | 0.0 | 0.00 | 0.00 | 0.66 | 95 | 1011.2 |
| 20260508005917 | 55 | 0 | 0.0 | 0.0 | 0.00 | 0.00 | 0.66 | 95 | 1011.3 |
| 20260508005425 | 55 | 0 | 0.0 | 0.0 | 0.00 | 0.00 | 0.66 | 94 | 1011.7 |
| 20260508004917 | 55 | 40 | 1.0 | 2.0 | 0.00 | 0.00 | 0.66 | 94 | 1011.8 |
| 20260508004418 | 55 | 0 | 0.0 | 0.0 | 0.00 | 0.00 | 0.66 | 94 | 1011.7 |
| 20260508003920 | 55 | 0 | 0.0 | 0.0 | 0.00 | 0.00 | 0.66 | 94 | 1011.7 |
| 20260508003417 | 55 | 341 | 0.0 | 0.0 | 0.00 | 0.00 | 0.65 | 94 | 1011.5 |
| 20260508002917 | 56 | 0 | 0.0 | 0.0 | 0.00 | 0.00 | 0.65 | 94 | 1011.3 |
| 20260508002418 | 56 | 53 | 0.0 | 0.0 | 0.00 | 0.00 | 0.65 | 94 | 1011.3 |
| 20260508001917 | 56 | 54 | 0.0 | 0.0 | 0.00 | 0.00 | 0.64 | 93 | 1011.5 |
| 20260508001417 | 56 | 196 | 0.0 | 0.0 | 0.00 | 0.00 | 0.63 | 91 | 1011.7 |
| 20260508000917 | 56 | 0 | 0.0 | 0.0 | 0.00 | 0.00 | 0.63 | 92 | 1011.4 |
| 20260508000419 | 56 | 69 | 1.0 | 2.0 | 0.00 | 0.00 | 0.61 | 92 | 1011.2 |
| 20260507235917 | 56 | 50 | 1.0 | 2.0 | 0.00 | 0.00 | 0.61 | 91 | 1011.1 |
| 20260507235417 | 56 | 67 | 0.0 | 0.0 | 0.00 | 0.00 | 0.61 | 91 | 1011.0 |
| 20260507234917 | 56 | 251 | 0.0 | 1.0 | 0.00 | 0.00 | 0.61 | 90 | 1010.7 |
| 20260507234417 | 56 | 0 | 0.0 | 0.0 | 0.00 | 0.00 | 0.61 | 91 | 1010.5 |
| 20260507233917 | 57 | 64 | 1.0 | 2.0 | 0.00 | 0.00 | 0.61 | 91 | 1010.4 |
| 20260507233419 | 57 | 43 | 0.0 | 0.0 | 0.00 | 0.00 | 0.61 | 91 | 1010.4 |
| 20260507232917 | 57 | 0 | 0.0 | 0.0 | 0.00 | 0.00 | 0.61 | 91 | 1010.5 |
| 20260507232417 | 57 | 0 | 0.0 | 0.0 | 0.00 | 0.00 | 0.61 | 91 | 1010.5 |
| 20260507231917 | 57 | 67 | 1.0 | 2.0 | 0.00 | 0.00 | 0.61 | 91 | 1010.4 |
| 20260507231417 | 57 | 0 | 0.0 | 0.0 | 0.00 | 0.00 | 0.61 | 90 | 1010.4 |
| 20260507230917 | 57 | 45 | 0.0 | 0.0 | 0.00 | 0.00 | 0.61 | 90 | 1010.4 |
| 20260507230418 | 57 | 0 | 0.0 | 0.0 | 0.00 | 0.00 | 0.61 | 90 | 1010.5 |
| 20260507225917 | 57 | 53 | 1.0 | 2.0 | 0.00 | 0.00 | 0.61 | 90 | 1010.4 |
| 20260507225417 | 57 | 53 | 1.0 | 2.0 | 0.00 | 0.00 | 0.61 | 91 | 1010.3 |
| 20260507224917 | 57 | 37 | 0.0 | 1.0 | 0.00 | 0.00 | 0.61 | 90 | 1010.3 |
| 20260507224417 | 57 | 307 | 0.0 | 0.0 | 0.00 | 0.00 | 0.61 | 90 | 1010.4 |
| 20260507223917 | 57 | 66 | 0.0 | 0.0 | 0.00 | 0.00 | 0.61 | 91 | 1010.2 |
| 20260507223417 | 57 | 309 | 1.0 | 2.0 | 0.00 | 0.00 | 0.61 | 91 | 1010.1 |
| 20260507222917 | 56 | 56 | 0.0 | 2.0 | 0.00 | 0.00 | 0.61 | 91 | 1009.9 |
| 20260507222417 | 56 | 266 | 1.0 | 2.0 | 0.00 | 0.00 | 0.61 | 91 | 1010.0 |
| 20260507221917 | 56 | 56 | 0.0 | 1.0 | 0.00 | 0.00 | 0.61 | 92 | 1010.0 |
| 20260507221419 | 56 | 24 | 2.0 | 3.0 | 0.00 | 0.00 | 0.61 | 92 | 1009.9 |
| 20260507220917 | 56 | 250 | 3.0 | 6.0 | 0.00 | 0.00 | 0.61 | 91 | 1009.9 |
| 20260507220417 | 56 | 0 | 0.0 | 0.0 | 0.00 | 0.00 | 0.61 | 92 | 1010.0 |
| 20260507215917 | 56 | 278 | 1.0 | 2.0 | 0.00 | 0.00 | 0.61 | 92 | 1010.0 |
| 20260507215417 | 56 | 37 | 0.0 | 2.0 | 0.00 | 0.00 | 0.61 | 91 | 1010.3 |
| 20260507214917 | 56 | 64 | 0.0 | 0.0 | 0.00 | 0.00 | 0.61 | 91 | 1010.2 |
| 20260507214417 | 56 | 49 | 1.0 | 2.0 | 0.00 | 0.00 | 0.61 | 91 | 1010.3 |
| 20260507213917 | 56 | 255 | 2.0 | 2.0 | 0.00 | 0.00 | 0.61 | 91 | 1010.1 |
| 20260507213417 | 56 | 215 | 1.0 | 2.0 | 0.00 | 0.00 | 0.61 | 90 | 1010.1 |
| 20260507212917 | 56 | 64 | 1.0 | 2.0 | 0.00 | 0.00 | 0.61 | 91 | 1010.2 |
| 20260507212417 | 56 | 278 | 1.0 | 2.0 | 0.00 | 0.00 | 0.61 | 90 | 1010.1 |
| 20260507211917 | 56 | 66 | 0.0 | 0.0 | 0.00 | 0.00 | 0.61 | 91 | 1010.1 |
| 20260507211417 | 57 | 354 | 2.0 | 2.0 | 0.00 | 0.00 | 0.61 | 93 | 1010.0 |
| 20260507210917 | 57 | 247 | 0.0 | 2.0 | 0.00 | 0.00 | 0.61 | 92 | 1010.0 |
| 20260507210417 | 57 | 52 | 2.0 | 4.0 | 0.00 | 0.00 | 0.61 | 92 | 1009.9 |
| 20260507205917 | 57 | 45 | 3.0 | 4.0 | 0.00 | 0.00 | 0.61 | 92 | 1009.8 |
| 20260507205417 | 57 | 51 | 1.0 | 1.0 | 0.00 | 0.00 | 0.61 | 92 | 1009.6 |
| 20260507204917 | 57 | 220 | 0.0 | 1.0 | 0.00 | 0.00 | 0.61 | 92 | 1009.3 |
| 20260507204417 | 57 | 34 | 2.0 | 3.0 | 0.00 | 0.00 | 0.61 | 92 | 1009.4 |
| 20260507203918 | 58 | 26 | 1.0 | 2.0 | 0.00 | 0.00 | 0.61 | 92 | 1009.4 |
| 20260507203417 | 58 | 46 | 1.0 | 3.0 | 0.00 | 0.00 | 0.61 | 92 | 1009.5 |
| 20260507202921 | 58 | 265 | 1.0 | 2.0 | 0.00 | 0.00 | 0.61 | 92 | 1009.5 |
| 20260507202417 | 58 | 62 | 1.0 | 2.0 | 0.00 | 0.00 | 0.61 | 92 | 1009.3 |
| 20260507201917 | 58 | 36 | 2.0 | 4.0 | 0.00 | 0.00 | 0.61 | 92 | 1009.3 |
| 20260507201418 | 58 | 203 | 2.0 | 3.0 | 0.00 | 0.00 | 0.61 | 93 | 1009.2 |
| 20260507200918 | 58 | 54 | 3.0 | 5.0 | 0.00 | 0.00 | 0.61 | 93 | 1009.3 |
| 20260507200418 | 58 | 212 | 0.0 | 2.0 | 0.00 | 0.00 | 0.61 | 93 | 1009.2 |
| 20260507195918 | 59 | 348 | 0.0 | 2.0 | 0.00 | 0.00 | 0.60 | 92 | 1009.4 |
| 20260507195417 | 59 | 287 | 2.0 | 4.0 | 0.00 | 0.00 | 0.60 | 93 | 1009.3 |
| 20260507194917 | 59 | 63 | 0.0 | 1.0 | 0.00 | 0.00 | 0.60 | 93 | 1009.4 |
| 20260507194417 | 58 | 145 | 1.0 | 2.0 | 0.00 | 0.00 | 0.60 | 93 | 1009.3 |
| 20260507193918 | 58 | 357 | 2.0 | 6.0 | 0.00 | 0.00 | 0.60 | 93 | 1009.4 |
| 20260507193417 | 58 | 358 | 0.0 | 2.0 | 0.00 | 0.00 | 0.60 | 93 | 1009.3 |
| 20260507192917 | 58 | 50 | 1.0 | 3.0 | 0.00 | 0.00 | 0.60 | 93 | 1009.2 |
| 20260507192417 | 58 | 49 | 1.0 | 2.0 | 0.00 | 0.00 | 0.60 | 94 | 1009.2 |
| 20260507191918 | 58 | 29 | 2.0 | 3.0 | 0.00 | 0.00 | 0.61 | 94 | 1009.1 |
| 20260507191418 | 58 | 56 | 1.0 | 3.0 | 0.00 | 0.00 | 0.61 | 94 | 1009.3 |
| 20260507190917 | 59 | 44 | 3.0 | 5.0 | 0.00 | 0.00 | 0.61 | 94 | 1009.4 |
| 20260507190418 | 59 | 53 | 2.0 | 3.0 | 0.00 | 0.00 | 0.61 | 94 | 1009.6 |
| 20260507185917 | 59 | 277 | 2.0 | 2.0 | 0.00 | 0.00 | 0.61 | 94 | 1009.5 |
| 20260507184939 | 59 | 208 | 1.0 | 2.0 | 0.00 | 0.00 | 0.60 | 94 | 1009.1 |
| 20260507184419 | 59 | 58 | 1.0 | 2.0 | 0.00 | 0.00 | 0.60 | 94 | 1009.0 |
| 20260507183917 | 59 | 4 | 2.0 | 3.0 | 0.00 | 0.00 | 0.60 | 94 | 1008.2 |
| 20260507183418 | 60 | 55 | 0.0 | 1.0 | 0.00 | 0.00 | 0.60 | 94 | 1008.9 |
| 20260507182917 | 60 | 97 | 1.0 | 3.0 | 0.00 | 0.00 | 0.59 | 94 | 1009.2 |
| 20260507182417 | 60 | 85 | 2.0 | 4.0 | 0.00 | 0.00 | 0.59 | 93 | 1009.4 |
| 20260507181918 | 61 | 282 | 1.0 | 2.0 | 0.00 | 0.00 | 0.60 | 93 | 1009.7 |
| 20260507181417 | 61 | 132 | 1.0 | 2.0 | 0.00 | 0.00 | 0.60 | 93 | 1009.0 |
| 20260507180917 | 61 | 199 | 0.0 | 0.0 | 0.00 | 0.00 | 0.60 | 93 | 1008.5 |
| 20260507180418 | 61 | 33 | 2.0 | 2.0 | 0.00 | 0.00 | 0.59 | 93 | 1008.4 |
| 20260507175917 | 62 | 45 | 2.0 | 3.0 | 0.00 | 0.00 | 0.58 | 92 | 1008.8 |
| 20260507175417 | 63 | 274 | 1.0 | 2.0 | 0.00 | 0.00 | 0.58 | 92 | 1009.1 |
| 20260507174918 | 66 | 73 | 2.0 | 6.0 | 0.00 | 0.00 | 0.57 | 91 | 1009.0 |
| 20260507174417 | 69 | 234 | 2.0 | 5.0 | 0.00 | 0.00 | 0.57 | 90 | 1009.0 |
| 20260507173919 | 70 | 91 | 1.0 | 2.0 | 0.00 | 0.00 | 0.57 | 93 | 1008.9 |
| 20260507173417 | 70 | 48 | 1.0 | 2.0 | 0.00 | 0.00 | 0.57 | 93 | 1009.1 |
| 20260507172918 | 70 | 90 | 1.0 | 2.0 | 0.00 | 0.00 | 0.57 | 93 | 1008.9 |
| 20260507172418 | 70 | 193 | 1.0 | 1.0 | 0.00 | 0.00 | 0.57 | 93 | 1008.8 |
| 20260507171918 | 70 | 145 | 1.0 | 1.0 | 0.00 | 0.00 | 0.59 | 92 | 1008.4 |
| 20260507171417 | 70 | 0 | 0.0 | 0.0 | 0.00 | 0.00 | 0.59 | 92 | 1008.3 |
| 20260507170917 | 70 | 0 | 0.0 | 0.0 | 0.00 | 0.00 | 0.59 | 92 | 1008.2 |
| 20260507170417 | 69 | 0 | 0.0 | 0.0 | 0.00 | 0.00 | 0.58 | 92 | 1008.0 |
| 20260507165918 | 69 | 0 | 0.0 | 0.0 | 0.00 | 0.00 | 0.58 | 92 | 1007.9 |
| 20260507165417 | 69 | 0 | 0.0 | 0.0 | 0.00 | 0.00 | 0.58 | 94 | 1008.2 |
| 20260507164917 | 69 | 72 | 0.0 | 1.0 | 0.00 | 0.00 | 0.58 | 94 | 1008.2 |
| 20260507164418 | 69 | 207 | 0.0 | 1.0 | 0.00 | 0.00 | 0.58 | 96 | 1008.2 |
| 20260507163919 | 69 | 176 | 0.0 | 0.0 | 0.00 | 0.00 | 0.58 | 96 | 1008.1 |
| 20260507163418 | 69 | 0 | 0.0 | 0.0 | 0.00 | 0.00 | 0.57 | 95 | 1008.4 |
| 20260507162923 | 69 | 66 | 1.0 | 2.0 | 0.00 | 0.00 | 0.57 | 95 | 1008.7 |
| 20260507162419 | 69 | 55 | 2.0 | 5.0 | 0.00 | 0.00 | 0.57 | 95 | 1009.1 |
| 20260507161917 | 69 | 178 | 0.0 | 0.0 | 0.00 | 0.00 | 0.57 | 95 | 1009.4 |
| 20260507161418 | 69 | 149 | 0.0 | 1.0 | 0.00 | 0.00 | 0.56 | 95 | 1009.5 |
| 20260507160918 | 69 | 0 | 0.0 | 0.0 | 0.00 | 0.00 | 0.56 | 95 | 1009.6 |
| 20260507160417 | 69 | 0 | 0.0 | 0.0 | 0.00 | 0.00 | 0.55 | 95 | 1009.8 |
| 20260507155917 | 69 | 45 | 1.0 | 2.0 | 0.00 | 0.00 | 0.54 | 95 | 1009.8 |
| 20260507155417 | 69 | 113 | 0.0 | 0.0 | 0.00 | 0.00 | 0.53 | 95 | 1009.9 |
| 20260507154918 | 69 | 209 | 1.0 | 2.0 | 0.00 | 0.00 | 0.53 | 95 | 1009.9 |
| 20260507154418 | 69 | 214 | 0.0 | 1.0 | 0.00 | 0.00 | 0.53 | 95 | 1009.7 |
| 20260507153917 | 69 | 0 | 0.0 | 0.0 | 0.00 | 0.00 | 0.53 | 95 | 1009.6 |
| 20260507153418 | 69 | 228 | 1.0 | 2.0 | 0.00 | 0.00 | 0.53 | 96 | 1009.6 |
| 20260507152918 | 69 | 0 | 0.0 | 0.0 | 0.00 | 0.00 | 0.53 | 97 | 1009.1 |
| 20260507152417 | 68 | 73 | 0.0 | 1.0 | 0.00 | 0.00 | 0.53 | 97 | 1008.9 |
| 20260507151917 | 68 | 112 | 0.0 | 0.0 | 0.00 | 0.00 | 0.53 | 97 | 1009.1 |
| 20260507151417 | 68 | 0 | 0.0 | 0.0 | 0.00 | 0.00 | 0.53 | 97 | 1009.2 |
| 20260507150917 | 68 | 97 | 0.0 | 0.0 | 0.00 | 0.00 | 0.53 | 97 | 1009.3 |
| 20260507150417 | 68 | 0 | 0.0 | 0.0 | 0.00 | 0.00 | 0.53 | 97 | 1009.5 |
| 20260507145917 | 68 | 0 | 0.0 | 0.0 | 0.00 | 0.00 | 0.52 | 97 | 1009.4 |
| 20260507145417 | 68 | 0 | 0.0 | 0.0 | 0.00 | 0.00 | 0.52 | 97 | 1009.5 |
| 20260507144919 | 67 | 75 | 1.0 | 2.0 | 0.00 | 0.00 | 0.51 | 97 | 1009.6 |
| 20260507144417 | 67 | 62 | 0.0 | 1.0 | 0.00 | 0.00 | 0.51 | 96 | 1009.6 |
| 20260507143917 | 67 | 243 | 4.0 | 5.0 | 0.00 | 0.00 | 0.50 | 96 | 1009.8 |
| 20260507143417 | 67 | 0 | 0.0 | 0.0 | 0.00 | 0.00 | 0.50 | 97 | 1009.8 |
| 20260507142917 | 67 | 0 | 0.0 | 0.0 | 0.00 | 0.00 | 0.49 | 97 | 1009.8 |
| 20260507142417 | 67 | 0 | 0.0 | 0.0 | 0.00 | 0.00 | 0.48 | 97 | 1009.9 |
| 20260507141917 | 67 | 240 | 1.0 | 2.0 | 0.00 | 0.00 | 0.47 | 97 | 1009.9 |
| 20260507141418 | 67 | 69 | 0.0 | 0.0 | 0.00 | 0.00 | 0.47 | 97 | 1009.6 |
| 20260507140917 | 67 | 0 | 0.0 | 0.0 | 0.00 | 0.00 | 0.47 | 97 | 1009.7 |
| 20260507140417 | 67 | 0 | 0.0 | 0.0 | 0.00 | 0.00 | 0.45 | 97 | 1009.7 |
| 20260507135918 | 67 | 0 | 0.0 | 0.0 | 0.00 | 0.00 | 0.45 | 97 | 1009.9 |
| 20260507135417 | 67 | 0 | 0.0 | 0.0 | 0.00 | 0.00 | 0.45 | 97 | 1010.0 |
| 20260507134918 | 67 | 170 | 0.0 | 0.0 | 0.00 | 0.00 | 0.45 | 97 | 1010.1 |
| 20260507134417 | 67 | 61 | 0.0 | 1.0 | 0.00 | 0.00 | 0.44 | 97 | 1010.1 |
| 20260507133919 | 67 | 91 | 0.0 | 0.0 | 0.00 | 0.00 | 0.43 | 97 | 1010.2 |
| 20260507133418 | 67 | 0 | 0.0 | 0.0 | 0.00 | 0.00 | 0.42 | 97 | 1010.2 |
| 20260507132918 | 67 | 0 | 0.0 | 0.0 | 0.00 | 0.00 | 0.40 | 97 | 1010.3 |
| 20260507132418 | 67 | 56 | 0.0 | 1.0 | 0.00 | 0.00 | 0.40 | 96 | 1010.1 |
| 20260507131918 | 67 | 88 | 0.0 | 0.0 | 0.00 | 0.00 | 0.39 | 97 | 1010.1 |
| 20260507131417 | 67 | 0 | 0.0 | 0.0 | 0.00 | 0.00 | 0.39 | 97 | 1010.2 |
| 20260507130918 | 67 | 101 | 0.0 | 0.0 | 0.00 | 0.00 | 0.39 | 97 | 1010.1 |
| 20260507130418 | 67 | 348 | 0.0 | 0.0 | 0.00 | 0.00 | 0.39 | 97 | 1010.1 |
| 20260507125917 | 67 | 0 | 0.0 | 0.0 | 0.00 | 0.00 | 0.39 | 97 | 1010.1 |
| 20260507125418 | 67 | 54 | 0.0 | 1.0 | 0.00 | 0.00 | 0.38 | 97 | 1010.1 |
| 20260507124919 | 67 | 0 | 0.0 | 0.0 | 0.00 | 0.00 | 0.36 | 97 | 1010.1 |
| 20260507124417 | 66 | 256 | 0.0 | 0.0 | 0.00 | 0.00 | 0.35 | 97 | 1010.2 |
| 20260507123917 | 66 | 0 | 0.0 | 0.0 | 0.00 | 0.00 | 0.35 | 97 | 1010.2 |
| 20260507123418 | 66 | 0 | 0.0 | 0.0 | 0.00 | 0.00 | 0.34 | 97 | 1010.1 |
| 20260507122917 | 66 | 60 | 0.0 | 0.0 | 0.00 | 0.00 | 0.34 | 97 | 1010.1 |
| 20260507122417 | 66 | 56 | 0.0 | 1.0 | 0.00 | 0.00 | 0.34 | 97 | 1010.1 |
| 20260507121917 | 66 | 0 | 0.0 | 0.0 | 0.00 | 0.00 | 0.34 | 97 | 1010.1 |
| 20260507121418 | 66 | 0 | 0.0 | 0.0 | 0.00 | 0.00 | 0.33 | 97 | 1010.0 |
| 20260507120918 | 66 | 0 | 0.0 | 0.0 | 0.00 | 0.00 | 0.33 | 97 | 1010.0 |
| 20260507120418 | 66 | 78 | 1.0 | 1.0 | 0.00 | 0.00 | 0.32 | 97 | 1010.1 |
| 20260507115917 | 66 | 0 | 0.0 | 0.0 | 0.00 | 0.00 | 0.32 | 97 | 1010.2 |
| 20260507115417 | 66 | 0 | 0.0 | 0.0 | 0.00 | 0.00 | 0.32 | 97 | 1010.3 |
| 20260507114918 | 66 | 0 | 0.0 | 0.0 | 0.00 | 0.00 | 0.32 | 97 | 1010.4 |
| 20260507114418 | 66 | 55 | 0.0 | 0.0 | 0.00 | 0.00 | 0.32 | 96 | 1010.2 |
| 20260507113917 | 66 | 0 | 0.0 | 0.0 | 0.00 | 0.00 | 0.32 | 97 | 1010.4 |
| 20260507113418 | 66 | 0 | 0.0 | 0.0 | 0.00 | 0.00 | 0.32 | 96 | 1010.5 |
| 20260507112918 | 66 | 70 | 0.0 | 1.0 | 0.00 | 0.00 | 0.32 | 96 | 1010.5 |
| 20260507112417 | 66 | 0 | 0.0 | 0.0 | 0.00 | 0.00 | 0.32 | 97 | 1010.7 |
| 20260507111917 | 66 | 252 | 0.0 | 0.0 | 0.00 | 0.00 | 0.32 | 97 | 1010.6 |
| 20260507111417 | 66 | 0 | 0.0 | 0.0 | 0.00 | 0.00 | 0.32 | 97 | 1010.6 |
| 20260507110918 | 66 | 0 | 0.0 | 0.0 | 0.00 | 0.00 | 0.32 | 97 | 1010.6 |
| 20260507110418 | 66 | 0 | 0.0 | 0.0 | 0.00 | 0.00 | 0.32 | 97 | 1010.7 |
| 20260507105917 | 66 | 0 | 0.0 | 0.0 | 0.00 | 0.00 | 0.32 | 97 | 1010.7 |
| 20260507105417 | 65 | 0 | 0.0 | 0.0 | 0.00 | 0.00 | 0.32 | 97 | 1010.5 |
| 20260507104917 | 65 | 0 | 0.0 | 0.0 | 0.00 | 0.00 | 0.32 | 97 | 1010.4 |
| 20260507104417 | 65 | 0 | 0.0 | 0.0 | 0.00 | 0.00 | 0.32 | 97 | 1010.3 |
| 20260507103919 | 65 | 0 | 0.0 | 0.0 | 0.00 | 0.00 | 0.32 | 96 | 1010.2 |
| 20260507103417 | 65 | 47 | 1.0 | 1.0 | 0.00 | 0.00 | 0.31 | 96 | 1010.2 |
| 20260507102918 | 65 | 0 | 0.0 | 0.0 | 0.00 | 0.00 | 0.31 | 96 | 1010.2 |
| 20260507102417 | 65 | 0 | 0.0 | 0.0 | 0.00 | 0.00 | 0.31 | 96 | 1010.4 |
| 20260507101917 | 65 | 0 | 0.0 | 0.0 | 0.00 | 0.00 | 0.32 | 96 | 1010.2 |
| 20260507101417 | 65 | 56 | 0.0 | 1.0 | 0.00 | 0.00 | 0.32 | 96 | 1010.2 |
| 20260507100917 | 65 | 87 | 0.0 | 0.0 | 0.00 | 0.00 | 0.32 | 96 | 1010.1 |
| 20260507100417 | 65 | 48 | 0.0 | 1.0 | 0.00 | 0.00 | 0.32 | 96 | 1010.3 |
| 20260507095918 | 65 | 0 | 0.0 | 0.0 | 0.00 | 0.00 | 0.32 | 96 | 1010.3 |
| 20260507095417 | 65 | 0 | 0.0 | 0.0 | 0.00 | 0.00 | 0.31 | 96 | 1010.2 |
| 20260507094917 | 65 | 54 | 0.0 | 0.0 | 0.00 | 0.00 | 0.30 | 96 | 1010.1 |
| 20260507094417 | 65 | 0 | 0.0 | 0.0 | 0.00 | 0.00 | 0.30 | 96 | 1010.2 |
| 20260507093917 | 65 | 0 | 0.0 | 0.0 | 0.00 | 0.00 | 0.30 | 96 | 1010.2 |
| 20260507093417 | 65 | 53 | 0.0 | 0.0 | 0.00 | 0.00 | 0.29 | 96 | 1010.2 |
| 20260507092917 | 65 | 0 | 0.0 | 0.0 | 0.00 | 0.00 | 0.29 | 96 | 1010.2 |
| 20260507092417 | 65 | 0 | 0.0 | 0.0 | 0.00 | 0.00 | 0.29 | 96 | 1010.3 |
| 20260507091918 | 65 | 0 | 0.0 | 0.0 | 0.00 | 0.00 | 0.30 | 96 | 1010.2 |
| 20260507091418 | 65 | 0 | 0.0 | 0.0 | 0.00 | 0.00 | 0.30 | 96 | 1010.2 |
| 20260507090918 | 65 | 0 | 0.0 | 0.0 | 0.00 | 0.00 | 0.30 | 96 | 1010.2 |
| 20260507090417 | 64 | 0 | 0.0 | 0.0 | 0.00 | 0.00 | 0.28 | 96 | 1010.3 |
| 20260507085917 | 64 | 0 | 0.0 | 0.0 | 0.00 | 0.00 | 0.28 | 96 | 1010.3 |
| 20260507085418 | 64 | 0 | 0.0 | 0.0 | 0.00 | 0.00 | 0.28 | 96 | 1010.3 |
| 20260507084917 | 64 | 0 | 0.0 | 0.0 | 0.00 | 0.00 | 0.27 | 96 | 1010.1 |
| 20260507084417 | 64 | 0 | 0.0 | 0.0 | 0.00 | 0.00 | 0.27 | 96 | 1010.4 |
| 20260507083917 | 65 | 0 | 0.0 | 0.0 | 0.00 | 0.00 | 0.26 | 96 | 1010.5 |
| 20260507083419 | 65 | 0 | 0.0 | 0.0 | 0.00 | 0.00 | 0.26 | 96 | 1010.5 |
| 20260507082917 | 65 | 0 | 0.0 | 0.0 | 0.00 | 0.00 | 0.26 | 96 | 1010.6 |
| 20260507082417 | 65 | 42 | 0.0 | 0.0 | 0.00 | 0.00 | 0.26 | 96 | 1010.7 |
| 20260507081918 | 65 | 0 | 0.0 | 0.0 | 0.01 | 0.00 | 0.26 | 96 | 1011.1 |
| 20260507081417 | 65 | 0 | 0.0 | 0.0 | 0.00 | 0.00 | 0.24 | 96 | 1011.3 |
| 20260507080918 | 65 | 0 | 0.0 | 0.0 | 0.00 | 0.00 | 0.23 | 96 | 1011.3 |
| 20260507080417 | 65 | 0 | 0.0 | 0.0 | 0.00 | 0.00 | 0.22 | 96 | 1011.0 |
| 20260507075917 | 65 | 0 | 0.0 | 0.0 | 0.00 | 0.00 | 0.22 | 96 | 1011.3 |
| 20260507075417 | 65 | 0 | 0.0 | 0.0 | 0.00 | 0.00 | 0.21 | 96 | 1010.6 |
| 20260507074917 | 65 | 0 | 0.0 | 0.0 | 0.00 | 0.00 | 0.19 | 96 | 1010.8 |
| 20260507074417 | 65 | 0 | 0.0 | 0.0 | 0.00 | 0.00 | 0.18 | 96 | 1010.7 |
| 20260507073917 | 65 | 42 | 0.0 | 1.0 | 0.00 | 0.00 | 0.18 | 96 | 1010.1 |
| 20260507073417 | 65 | 0 | 0.0 | 0.0 | 0.00 | 0.00 | 0.18 | 96 | 1011.1 |
| 20260507072917 | 65 | 0 | 0.0 | 0.0 | 0.00 | 0.00 | 0.18 | 96 | 1011.5 |
| 20260507072418 | 65 | 0 | 0.0 | 0.0 | 0.00 | 0.00 | 0.18 | 96 | 1011.3 |
| 20260507071917 | 65 | 0 | 0.0 | 0.0 | 0.00 | 0.00 | 0.18 | 96 | 1011.5 |
| 20260507071417 | 65 | 0 | 0.0 | 0.0 | 0.00 | 0.00 | 0.17 | 96 | 1011.6 |
| 20260507070917 | 65 | 242 | 1.0 | 1.0 | 0.00 | 0.00 | 0.17 | 96 | 1011.3 |
| 20260507070417 | 65 | 0 | 0.0 | 0.0 | 0.00 | 0.00 | 0.17 | 96 | 1011.2 |
| 20260507065917 | 65 | 0 | 0.0 | 0.0 | 0.01 | 0.00 | 0.16 | 96 | 1011.2 |
| 20260507065417 | 65 | 0 | 0.0 | 0.0 | 0.00 | 0.00 | 0.14 | 96 | 1011.5 |
| 20260507064917 | 65 | 0 | 0.0 | 0.0 | 0.00 | 0.00 | 0.14 | 96 | 1011.6 |
| 20260507064418 | 65 | 0 | 0.0 | 0.0 | 0.00 | 0.00 | 0.14 | 96 | 1011.7 |
| 20260507063918 | 65 | 0 | 0.0 | 0.0 | 0.00 | 0.00 | 0.14 | 96 | 1011.6 |
| 20260507063417 | 65 | 0 | 0.0 | 0.0 | 0.00 | 0.00 | 0.14 | 95 | 1011.6 |
| 20260507062917 | 65 | 0 | 0.0 | 0.0 | 0.00 | 0.00 | 0.14 | 95 | 1011.6 |
| 20260507062417 | 65 | 0 | 0.0 | 0.0 | 0.00 | 0.00 | 0.14 | 95 | 1011.9 |
| 20260507061917 | 65 | 0 | 0.0 | 0.0 | 0.00 | 0.00 | 0.14 | 95 | 1012.2 |
| 20260507061417 | 65 | 0 | 0.0 | 0.0 | 0.00 | 0.00 | 0.14 | 95 | 1012.2 |
| 20260507060917 | 65 | 0 | 0.0 | 0.0 | 0.00 | 0.00 | 0.14 | 95 | 1012.1 |
| 20260507060416 | 65 | 0 | 0.0 | 0.0 | 0.00 | 0.00 | 0.14 | 95 | 1012.2 |
| 20260507055917 | 65 | 0 | 0.0 | 0.0 | 0.00 | 0.00 | 0.09 | 95 | 1012.3 |
| 20260507055418 | 65 | 0 | 0.0 | 0.0 | 0.00 | 0.00 | 0.09 | 95 | 1012.3 |
| 20260507054917 | 65 | 0 | 0.0 | 0.0 | 0.00 | 0.00 | 0.09 | 95 | 1012.1 |